Regional Weather Roundup
Issued by NWS

Home | Current Version | Previous Version | Graphics & Text | Print | Product List | Glossary Off
Versions: 1 2 3 4 5 6 7 8 9 10 11 12 13 14 15 16 17 18 19 20 21 22 23 24 25 26 27 28 29 30 31 32 33 34 35 36 37 38 39 40 41 42 43 44 45 46 47 48 49 50

000
ASUS43 KMKX 251111
RWRWI

WISCONSIN REGIONAL WEATHER ROUNDUP
NATIONAL WEATHER SERVICE MILWAUKEE/SULLIVAN WI
600 AM CDT SAT APR 25 2015

NOTE: "FAIR" INDICATES FEW OR NO CLOUDS BELOW 12,000 FEET WITH NO
SIGNIFICANT WEATHER AND/OR OBSTRUCTIONS TO VISIBILITY.

WIZ001-002-006>008-014>016-023>028-251200-
NORTHWEST WISCONSIN

CITY           SKY/WX    TMP DP  RH WIND       PRES   REMARKS
SUPERIOR ARPT  CLOUDY    35  31  85 NE13G21   29.96R WCI  26
ASHLAND        CLOUDY    36  31  82 N7        29.97R WCI  30
HAYWARD        CLOUDY    40  29  64 E7        29.91R
SIREN          CLOUDY    43  33  68 E7        29.87F
CUMBERLAND     CLOUDY    39  32  75 E9        29.87S WCI  33
RICE LAKE      CLOUDY    41  32  69 E6        29.89S
CHETEK         CLOUDY    40  32  71 E7        29.88F
LADYSMITH      MOCLDY    39  29  69 E3        29.92R
EAU CLAIRE     CLOUDY    40  31  70 E12       29.86F WCI  33
MENOMONIE      CLOUDY    41  35  77 E12       29.86F
NEW RICHMOND   MOCLDY    40  34  79 E15G21    29.83F WCI  32
OSCEOLA        CLOUDY    42  35  76 E9        29.87R
$$

WIZ003>005-009-010-017-018-251200-
NORTH CENTRAL WISCONSIN

CITY           SKY/WX    TMP DP  RH WIND       PRES   REMARKS
MANITOWISH WTR CLOUDY    37  24  61 E3        29.94R
ARBOR VITAE    CLOUDY    37  19  48 CALM      29.93S
WOODRUFF       CLOUDY    37  19  48 CALM      29.93S
RHINELANDER    CLOUDY    35  19  52 E7        29.94R WCI  29
EAGLE RIVER    CLOUDY    35  17  49 E5        29.94R WCI  31
LAND O LAKES   CLOUDY    35  21  57 CALM      29.96R
PHILLIPS       CLOUDY    37  26  63 NE6       29.90F WCI  32
TOMAHAWK       CLOUDY    37  18  47 CALM      29.92F
MEDFORD        CLOUDY    36  23  59 E8        29.89S WCI  29
MERRILL        CLOUDY    37  20  50 E7        29.91F WCI  31
$$

WIZ029-030-035-036-043>047-251200-
CENTRAL WISCONSIN

CITY           SKY/WX    TMP DP  RH WIND       PRES   REMARKS
WAUSAU         CLOUDY    37  21  52 E7        29.89F WCI  32
MOSINEE        CLOUDY    37  23  56 E9        29.90F WCI  31
MARSHFIELD     CLOUDY    37  27  67 E10       29.87F WCI  30
STEVENS POINT  CLOUDY    35  23  61 NE8       29.90S WCI  29
WAUPACA        CLOUDY    40  28  62 NE5       29.91S
WAUTOMA        CLOUDY    38  36  92 NE9       29.89F WCI  31
WISC RAPIDS    CLOUDY    38  29  70 E10       29.89S WCI  31
CAMP DOUGLAS   CLOUDY    38  38 100 E9        29.85R WCI  31
$$

WIZ011>013-019>022-031-037>040-048>050-251200-
NORTHEAST WISCONSIN

CITY           SKY/WX    TMP DP  RH WIND       PRES   REMARKS
ANTIGO         CLOUDY    34  20  55 E6        29.93R WCI  29
SHAWANO        CLOUDY    39  26  59 NE9       29.94S WCI  33
OCONTO         CLOUDY    37  25  61 NE8       29.94S WCI  31
STURGEON BAY   CLOUDY    36  21  55 NE7       29.96S WCI  30
GREEN BAY      CLOUDY    40  25  55 NE8       29.93R WCI  34
MANITOWOC      CLOUDY    38  30  73 NE5       29.93R WCI  34
APPLETON       CLOUDY    39  23  52 NE8       29.91R WCI  34
CLINTONVILLE   CLOUDY    37  23  56 E8        29.92S WCI  31
OSHKOSH        CLOUDY    40  33  76 NE8       29.88F WCI  34
$$

WIZ032>034-041-042-053>061-251200-
SOUTHWEST WISCONSIN

CITY           SKY/WX    TMP DP  RH WIND       PRES   REMARKS
LA CROSSE      CLOUDY    42  36  79 E6        29.82S
SPARTA         CLOUDY    39  35  85 E10       29.85S WCI  32
VIROQUA        CLOUDY    38  37  93 E14       29.79S WCI  30
BOSCOBEL       CLOUDY    42  34  73 NE8       29.80F
PRAIRIE DU CHI CLOUDY    42  34  73 E12G17    29.77S
PLATTEVILLE    CLOUDY    40  36  84 E18       29.75F WCI  31
$$

WIZ056-057-062-063-064-067-068-251200-
SOUTH CENTRAL WISCONSIN

CITY           SKY/WX    TMP DP  RH WIND       PRES   REMARKS
REEDSBURG      CLOUDY    38  34  87 E7        29.83S WCI  32
BARABOO/DELLS  CLOUDY    38  34  85 NE12      29.84S WCI  30
LONE ROCK      CLOUDY    41  34  76 E16       29.80F
MINERAL POINT  CLOUDY    41  36  81 E13       29.77S
MADISON        CLOUDY    40  33  76 E12       29.82F WCI  33
MIDDLETON      CLOUDY    41  34  77 E12       29.82F
WATERTOWN      CLOUDY    39  37  92 E10       29.84S WCI  32
MONROE         CLOUDY    39  36  87 NE12      29.79R WCI  32
JANESVILLE     CLOUDY    43  37  81 E12       29.80R
$$

WIZ051-052-058>065-066-070>072-251200-
SOUTHEAST WISCONSIN

CITY           SKY/WX    TMP DP  RH WIND       PRES   REMARKS
MILWAUKEE      CLOUDY    40  35  83 E12       29.86F WCI  33
WAUKESHA       CLOUDY    37  34  87 NE12      29.86F WCI  30
MILWAUKEE/TIMM CLOUDY    39  34  81 E6        29.87S WCI  35
RACINE         CLOUDY    41  36  82 E12       29.86F
BURLINGTON     MOCLDY    40  35  83 E6        29.84R
KENOSHA        CLOUDY    41  37  86 E14       29.84S
FOND DU LAC    CLOUDY    40  33  76 E8        29.88S WCI  34
SHEBOYGAN      CLOUDY    37  33  85 NE8       29.90F WCI  31
WEST BEND      CLOUDY    37  32  81 E9        29.87S WCI  31
JUNEAU         CLOUDY    39  34  82 E9        29.86S WCI  33
$$

LSZ147-162-251200-
LAKE SUPERIOR

STATION/POSITION TIME  TEMP    WIND        PRES    WAVE
                       AIR SEA DIR/SP/G            HT/PER
                 (UTC) (F)     (DEG/KT/KT) (MB)    (FT/S)
W MID LAKE BUOY  1050   34 34   70/ 16/ 17 1017.2R   3/ 4
DEVILS ISLAND    1100   35      70/ 18/ 20 1016.3R
PORT WING        1000   37      50/ 11/ 14 1014.6R
SAXON HARBOR     1040   37        CALM     1014.2R
$$

LMZ867-665-643>646-251200-
LAKE MICHIGAN

STATION/POSITION TIME  TEMP    WIND        PRES    WAVE
                       AIR SEA DIR/SP/G            HT/PER
                 (UTC) (F)     (DEG/KT/KT) (MB)    (FT/S)
CHAMBERS ISLAND  1000   36      50/  8/ 11 1014.9F
NORTHPORT PIER   1000   35      80/ 12/ 14 1015.2S
SISTER BAY       1017   36     110/ 10/ 13   N/A
KEWAUNEE LAKESHO 1000   37      50/ 11/ 15 1012.7F
SHEBOYGAN LAKESH 1100   38      20/ 14/ 16 1013.5F
PORT WASHINGTON  1040   41      50/ 10/ 14 1012.5F
MILWAUKEE LAKESH 1000   40      50/  9/ 12   N/A
KENOSHA   LAKESH 1100   41      90/ 15/ 18 1010.5F
$$

TC  - TEMPERATURE IN CELSIUS
VSB - VISIBILITY IN STATUTE MILES
WCI - WIND CHILL INDEX
HX  - HEAT INDEX



USA.gov is the U.S. government's official web portal to all federal, state and local government web resources and services.